Regional Weather Roundup
Issued by NWS

Home | Current Version | Previous Version | Text Only | Print | Product List | Glossary Off
Versions: 1 2 3 4 5 6 7 8 9 10 11 12 13 14 15 16 17 18 19 20 21 22 23 24 25 26 27 28 29 30 31 32 33 34 35 36 37 38 39 40 41 42 43 44 45 46 47 48 49 50

000
ASUS43 KBIS 252359
RWRND

NORTH DAKOTA REGIONAL WEATHER ROUNDUP
NATIONAL WEATHER SERVICE BISMARCK ND
700 PM CDT FRI JUL 25 2014

NOTE: "FAIR" INDICATES FEW OR NO CLOUDS BELOW 12,000 FEET WITH NO
SIGNIFICANT WEATHER AND/OR OBSTRUCTIONS TO VISIBILITY.


NDZ001>003-009>011-017-260100-
NORTHWEST NORTH DAKOTA

CITY           SKY/WX    TMP DP  RH WIND       PRES   REMARKS
WILLISTON      SUNNY     84  36  18 W13       29.75S
6HR MIN TEMP:  77; 6HR MAX TEMP:  86;

MINOT          SUNNY     78  49  35 S9        29.75F
$$

NDZ018>021-031>035-040>046-260100-
SOUTHWEST NORTH DAKOTA

CITY           SKY/WX    TMP DP  RH WIND       PRES   REMARKS
BISMARCK       SUNNY     82  47  29 SW6       29.81S
6HR MIN TEMP:  79; 6HR MAX TEMP:  84;

GARRISON         N/A     77  55  46 SE3       29.77F
6HR MIN TEMP:  74; 6HR MAX TEMP:  77;

HETTINGER ARPT SUNNY     81  47  30 SW7       29.85F
$$

NDZ004>008-012>016-024-026-027-054-260100-
NORTHEAST NORTH DAKOTA

CITY           SKY/WX    TMP DP  RH WIND       PRES   REMARKS
GRAND FORKS    MOSUNNY   79  58  48 W7        29.73R
DEVILS LAKE    SUNNY     75  52  43 W17       29.77S
$$

NDZ022-023-025-028>030-036>039-047>053-260100-
SOUTHEAST NORTH DAKOTA

CITY           SKY/WX    TMP DP  RH WIND       PRES   REMARKS
FARGO          SUNNY     81  56  42 NW13      29.74S
6HR MIN TEMP:  76; 6HR MAX TEMP:  82;

$$



USA.gov is the U.S. government's official web portal to all federal, state and local government web resources and services.